timestamp,surface_pressure_avg,surface_temp_avg,battery_voltage,lat,long
2023-07-06 00:09:00+00:00,363.3796,13.6,12.97,47.84626,-54.09684
2023-07-06 00:19:00+00:00,371.3712,13.65,12.81,47.84626,-54.09684
2023-07-06 00:29:00+00:00,373.6129,13.7,12.81,47.84626,-54.09684
2023-07-06 00:39:00+00:00,377.3329,13.7,12.81,47.84626,-54.09684
2023-07-06 00:49:00+00:00,381.5629,13.7,12.81,47.84626,-54.09684
2023-07-06 00:59:00+00:00,382.2495,13.79,12.81,47.84626,-54.09684
2023-07-06 01:09:00+00:00,382.793,13.8,12.81,47.84626,-54.09684
2023-07-06 01:19:00+00:00,388.9979,13.83,12.73,47.84626,-54.09684
2023-07-06 01:29:00+00:00,392.6412,13.98,12.73,47.84626,-54.09684
2023-07-06 01:39:00+00:00,393.0863,14.09,12.73,47.84626,-54.09684
2023-07-06 01:49:00+00:00,395.043,13.55,12.73,47.84626,-54.09684
2023-07-06 01:59:00+00:00,393.8947,13.4,12.73,47.84626,-54.09684
2023-07-06 02:09:00+00:00,392.228,13.38,12.73,47.84626,-54.09684
2023-07-06 02:19:00+00:00,391.5063,13.3,12.73,47.84626,-54.09684
2023-07-06 02:29:00+00:00,389.1829,13.43,12.73,47.84626,-54.09684
2023-07-06 02:39:00+00:00,382.3195,13.53,12.73,47.84626,-54.09684
2023-07-06 02:49:00+00:00,377.9062,13.53,12.73,47.84626,-54.09684
2023-07-06 02:59:00+00:00,374.2179,13.63,12.73,47.84626,-54.09684
2023-07-06 03:09:00+00:00,368.6146,13.7,12.73,47.84626,-54.09684
2023-07-06 03:19:00+00:00,363.4529,13.7,12.73,47.84626,-54.09684
2023-07-06 03:29:00+00:00,357.1647,13.77,12.73,47.84626,-54.09684
2023-07-06 03:39:00+00:00,350.2029,13.73,12.73,47.84626,-54.09684
2023-07-06 03:49:00+00:00,339.6346,13.77,12.73,47.84626,-54.09684
2023-07-06 03:59:00+00:00,331.2097,13.74,12.73,47.84626,-54.09684
2023-07-06 04:09:00+00:00,322.8747,13.78,12.73,47.84626,-54.09684
2023-07-06 04:19:00+00:00,314.0347,13.78,12.65,47.84626,-54.09684
2023-07-06 04:29:00+00:00,303.3831,13.79,12.65,47.84626,-54.09684
2023-07-06 04:39:00+00:00,292.508,13.8,12.65,47.84626,-54.09684
2023-07-06 04:49:00+00:00,284.6998,13.9,12.65,47.84626,-54.09684
2023-07-06 04:59:00+00:00,274.9797,14.01,12.65,47.84626,-54.09684
2023-07-06 05:09:00+00:00,263.4048,14.2,12.65,47.84626,-54.09684
2023-07-06 05:19:00+00:00,250.1764,14.27,12.65,47.84626,-54.09684
2023-07-06 05:29:00+00:00,239.8531,14.28,12.65,47.84626,-54.09684
2023-07-06 05:39:00+00:00,230.1598,14.26,12.65,47.84626,-54.09684
2023-07-06 05:49:00+00:00,220.1864,14.29,12.65,47.84626,-54.09684
2023-07-06 05:59:00+00:00,209.4531,14.3,12.65,47.84626,-54.09684
2023-07-06 06:09:00+00:00,202.5831,14.3,12.65,47.84626,-54.09684
2023-07-06 06:19:00+00:00,200.3881,14.3,12.65,47.84626,-54.09684
2023-07-06 06:29:00+00:00,194.8231,14.3,12.65,47.84626,-54.09684
2023-07-06 06:39:00+00:00,191.4282,14.3,12.65,47.84626,-54.09684
2023-07-06 06:49:00+00:00,190.3715,14.3,12.65,47.84626,-54.09684
2023-07-06 06:59:00+00:00,189.1515,14.27,12.65,47.84626,-54.09684
2023-07-06 07:09:00+00:00,187.2548,14.2,12.65,47.84626,-54.09684
2023-07-06 07:19:00+00:00,184.3515,14.13,12.65,47.84626,-54.09684
2023-07-06 07:29:00+00:00,184.7248,14.1,12.65,47.84626,-54.09684
2023-07-06 07:39:00+00:00,187.0031,14.0,12.65,47.84626,-54.09684
2023-07-06 07:49:00+00:00,186.1732,13.9,12.65,47.84626,-54.09684
2023-07-06 07:59:00+00:00,189.2965,13.8,12.65,47.84626,-54.09684
2023-07-06 08:09:00+00:00,191.9914,13.7,12.65,47.84626,-54.09684
2023-07-06 08:19:00+00:00,189.9698,13.7,12.57,47.84626,-54.09684
2023-07-06 08:29:00+00:00,194.8815,13.65,12.57,47.84626,-54.09684
2023-07-06 08:39:00+00:00,199.1615,13.6,12.57,47.84626,-54.09684
2023-07-06 08:49:00+00:00,196.9597,13.53,12.57,47.84626,-54.09684
2023-07-06 08:59:00+00:00,195.2731,13.5,12.57,47.84626,-54.09684
2023-07-06 09:09:00+00:00,198.7498,13.4,12.57,47.84626,-54.09684
2023-07-06 09:19:00+00:00,200.3048,13.4,12.57,47.84626,-54.09684
2023-07-06 09:29:00+00:00,201.7498,13.4,12.57,47.84626,-54.09684
2023-07-06 09:39:00+00:00,206.7398,13.34,12.57,47.84626,-54.09684
2023-07-06 09:49:00+00:00,211.7897,13.3,12.57,47.84626,-54.09684
2023-07-06 09:59:00+00:00,214.8465,13.2,12.57,47.84626,-54.09684
2023-07-06 10:09:00+00:00,221.3964,13.1,12.57,47.84626,-54.09684
2023-07-06 10:19:00+00:00,225.9015,13.1,12.65,47.84626,-54.09684
2023-07-06 10:29:00+00:00,228.2814,13.08,12.65,47.84626,-54.09684
2023-07-06 10:39:00+00:00,232.5731,13.0,12.65,47.84626,-54.09684
2023-07-06 10:49:00+00:00,240.9664,13.0,12.65,47.84626,-54.09684
2023-07-06 10:59:00+00:00,247.1214,13.0,12.65,47.84626,-54.09684
2023-07-06 11:09:00+00:00,250.7064,12.97,12.65,47.84626,-54.09684
2023-07-06 11:19:00+00:00,255.6031,12.9,12.73,47.84626,-54.09684
2023-07-06 11:29:00+00:00,264.8248,12.9,12.73,47.84626,-54.09684
2023-07-06 11:39:00+00:00,275.8397,12.89,12.73,47.84626,-54.09684
2023-07-06 11:49:00+00:00,285.853,12.87,12.73,47.84626,-54.09684
2023-07-06 11:59:00+00:00,292.8447,12.8,12.73,47.84626,-54.09684
2023-07-06 12:09:00+00:00,303.878,12.7,12.73,47.84626,-54.09684
2023-07-06 12:19:00+00:00,316.7313,12.54,12.97,47.84626,-54.09684
2023-07-06 12:29:00+00:00,324.3912,12.54,12.97,47.84626,-54.09684
2023-07-06 12:39:00+00:00,327.2329,12.5,12.97,47.84626,-54.09684
2023-07-06 12:49:00+00:00,336.4846,12.4,12.97,47.84626,-54.09684
2023-07-06 12:59:00+00:00,342.8079,12.3,12.97,47.84626,-54.09684
2023-07-06 13:09:00+00:00,344.7646,12.3,12.97,47.84626,-54.09684
2023-07-06 13:19:00+00:00,347.5864,12.28,13.21,47.84626,-54.09684
2023-07-06 13:29:00+00:00,352.2747,12.22,13.21,47.84626,-54.09684
2023-07-06 13:39:00+00:00,352.63300000000015,12.22,13.21,47.84626,-54.09684
2023-07-06 13:49:00+00:00,347.7211,12.25,13.21,47.84626,-54.09684
2023-07-06 13:59:00+00:00,349.9229,12.2,13.21,47.84626,-54.09684
2023-07-06 14:09:00+00:00,355.8463,12.2,13.21,47.84626,-54.09684
2023-07-06 14:19:00+00:00,350.9146,12.2,13.29,47.84626,-54.09684
2023-07-06 14:29:00+00:00,347.4813,12.17,13.29,47.84626,-54.09684
2023-07-06 14:39:00+00:00,348.1946,12.1,13.29,47.84626,-54.09684
2023-07-06 14:49:00+00:00,348.1329,12.1,13.29,47.84626,-54.09684
2023-07-06 14:59:00+00:00,340.5962,12.19,13.29,47.84626,-54.09684
2023-07-06 15:09:00+00:00,340.0179,12.18,13.29,47.84626,-54.09684
2023-07-06 15:19:00+00:00,339.1429,12.19,13.29,47.84626,-54.09684
2023-07-06 15:29:00+00:00,331.4913,12.2,13.29,47.84626,-54.09684
2023-07-06 15:39:00+00:00,326.3779,12.21,13.29,47.84626,-54.09684
2023-07-06 15:49:00+00:00,325.0814,12.23,13.29,47.84626,-54.09684
2023-07-06 15:59:00+00:00,318.5363,12.28,13.29,47.84626,-54.09684
2023-07-06 16:09:00+00:00,308.6031,12.3,13.29,47.84626,-54.09684
2023-07-06 16:19:00+00:00,300.563,12.3,13.21,47.84626,-54.09684
2023-07-06 16:29:00+00:00,292.8914,12.24,13.21,47.84626,-54.09684
2023-07-06 16:39:00+00:00,282.4464,12.3,13.21,47.84626,-54.09684
2023-07-06 16:49:00+00:00,271.8131,12.4,13.21,47.84626,-54.09684
2023-07-06 16:59:00+00:00,261.558,12.4,13.21,47.84626,-54.09684
2023-07-06 17:09:00+00:00,254.5598,12.2,13.21,47.84626,-54.09684
2023-07-06 17:19:00+00:00,247.1214,12.26,13.44,47.84626,-54.09684
2023-07-06 17:29:00+00:00,236.0581,12.4,13.44,47.84626,-54.09684
2023-07-06 17:39:00+00:00,226.9781,12.42,13.44,47.84626,-54.09684
2023-07-06 17:49:00+00:00,218.5564,12.4,13.44,47.84626,-54.09684
2023-07-06 17:59:00+00:00,208.5331,12.43,13.44,47.84626,-54.09684
2023-07-06 18:09:00+00:00,200.7798,12.5,13.44,47.84626,-54.09684
2023-07-06 18:19:00+00:00,195.8898,12.5,13.68,47.84626,-54.09684
2023-07-06 18:29:00+00:00,191.7131,12.56,13.68,47.84626,-54.09684
2023-07-06 18:39:00+00:00,188.6848,12.66,13.68,47.84626,-54.09684
2023-07-06 18:49:00+00:00,185.2881,12.75,13.68,47.84626,-54.09684
2023-07-06 18:59:00+00:00,181.7265,12.8,13.68,47.84626,-54.09684
2023-07-06 19:09:00+00:00,179.3914,12.8,13.68,47.84626,-54.09684
2023-07-06 19:19:00+00:00,177.7115,12.81,13.53,47.84626,-54.09684
2023-07-06 19:29:00+00:00,176.5015,12.9,13.53,47.84626,-54.09684
2023-07-06 19:39:00+00:00,178.1465,12.9,13.53,47.84626,-54.09684
2023-07-06 19:49:00+00:00,179.5581,12.9,13.53,47.84626,-54.09684
2023-07-06 19:59:00+00:00,178.4148,12.9,13.53,47.84626,-54.09684
2023-07-06 20:09:00+00:00,183.3348,12.94,13.53,47.84626,-54.09684
2023-07-06 20:19:00+00:00,189.1048,13.17,13.44,47.84626,-54.09684
2023-07-06 20:29:00+00:00,189.8748,13.48,13.44,47.84626,-54.09684
2023-07-06 20:39:00+00:00,192.2764,13.4,13.44,47.84626,-54.09684
2023-07-06 20:49:00+00:00,196.1298,13.1,13.44,47.84626,-54.09684
2023-07-06 20:59:00+00:00,197.4831,13.0,13.44,47.84626,-54.09684
2023-07-06 21:09:00+00:00,198.0448,13.0,13.44,47.84626,-54.09684
2023-07-06 21:19:00+00:00,201.0331,13.0,13.29,47.84626,-54.09684
2023-07-06 21:29:00+00:00,202.5165,13.0,13.29,47.84626,-54.09684
2023-07-06 21:39:00+00:00,206.1314,12.97,13.29,47.84626,-54.09684
2023-07-06 21:49:00+00:00,211.1714,12.9,13.29,47.84626,-54.09684
2023-07-06 21:59:00+00:00,214.2881,12.89,13.29,47.84626,-54.09684
2023-07-06 22:09:00+00:00,218.4114,12.7,13.29,47.84626,-54.09684
2023-07-06 22:19:00+00:00,224.9648,12.4,13.05,47.84626,-54.09684
2023-07-06 22:29:00+00:00,230.4548,12.46,13.05,47.84626,-54.09684
2023-07-06 22:39:00+00:00,233.7881,12.59,13.05,47.84626,-54.09684
2023-07-06 22:49:00+00:00,240.2365,12.5,13.05,47.84626,-54.09684
2023-07-06 22:59:00+00:00,247.5714,12.5,13.05,47.84626,-54.09684
2023-07-06 23:09:00+00:00,254.7947,12.54,13.05,47.84626,-54.09684
2023-07-06 23:19:00+00:00,259.7314,12.5,12.81,47.84626,-54.09684
2023-07-06 23:29:00+00:00,268.5331,12.3,12.81,47.84626,-54.09684
2023-07-06 23:39:00+00:00,280.528,12.27,12.81,47.84626,-54.09684
2023-07-06 23:49:00+00:00,289.123,12.28,12.81,47.84626,-54.09684
2023-07-06 23:59:00+00:00,293.4597,12.08,12.81,47.84626,-54.09684
